Temp
64 65 63 63 61 61 64 65 65 66 65 64 63 63 63 64 64 64 66 66 68 67 65 65 62 62 62 62 61 59 58 56 56 56 54 54 55 54 54 54 54 55 57
60 58 58 58 62 61 59 62 64 65 65 64 64 64 64 64 65 65 65 66 65 65 65 64 63 62 62 61 60 60 57 57 55 56 55 55 58 53 55 53 55 53 54
55 53 54 53 54 57 57 60 61 62 64 64 64 63 63 63 62 63 64 65 64 64 64 63 62 61 61 61 61 60 59 59 55 55 58 52 51 48 52 51 51 52 50
53 53 54 55 55 53 55 57 58 59 60 60 62 63 63 61 62 62 63 63 63 64 64 63 62 61 61 60 60 60 60 60 60 55 57 55 54 53 51 50 49 50 53
54 54 54 55 54 54 54 54 55 56 56 57 58 59 60 61 61 61 62 62 62 63 64 64 62 61 60 60 59 59 61 61 61 58 56 55 53 53 51 53 52 50 48
53 53 54 54 52 52 54 54 54 53 53 53 54 55 55 56 55 56 57 59 60 61 62 62 62 62 61 60 60 59 59 60 60 59 58 57 54 52 51 49 52 49 48
49 50 51 52 52 51 52 54 53 51 51 51 51 51 52 53 54 54 54 55 56 57 59 60 60 60 60 60 60 61 60 58 59 59 59 58 57 56 54 53 51 47 45
49 49 50 50 50 51 51 51 50 50 50 50 49 49 50 50 50 51 52 53 54 57 56 57 58 59 59 59 59 60 59 58 57 56 56 57 54 54 53 52 50 43 42
47 49 49 49 49 49 49 48 48 48 48 48 48 47 48 48 48 48 49 49 51 54 55 56 56 56 56 56 57 54 54 52 51 49 49 48 46 47 48 48 49 48 43
46 47 47 47 48 48 47 48 47 46 46 46 46 45 44 45 45 45 45 46 47 49 49 49 50 51 51 51 50 49 51 47 46 46 46 43 44 44 44 45 45 45 44
46 46 47 46 46 45 46 46 47 46 44 44 43 42 41 42 42 41 42 42 44 44 45 45 45 44 45 46 46 46 47 46 44 44 43 42 43 40 42 42 41 41 41
45 45 45 45 43 44 44 44 44 44 44 43 41 40 41 40 39 39 40 41 40 41 41 42 41 40 40 40 43 42 45 43 42 42 42 41 42 39 39 38 38 37 38
45 43 44 45 44 43 43 43 43 42 42 42 40 39 39 39 37 38 39 39 38 39 39 39 38 38 38 37 37 37 40 40 40 40 39 39 39 36 36 35 32 31 37
46 43 43 43 44 43 42 42 41 42 41 40 39 38 37 36 36 37 37 38 37 37 36 37 37 37 36 36 36 36 36 36 35 35 35 34 34 33 32 32 32 33 33
44 44 42 42 42 42 42 42 42 41 40 39 38 37 37 37 37 37 37 37 37 37 37 36 37 36 37 37 37 37 37 36 36 36 37 37 40 42 38 34 32 32 31
46 45 43 42 42 41 40 41 40 40 40 38 37 38 40 40 38 39 39 39 39 39 37 37 39 40 41 42 40 38 36 35 34 33 34 35 35 38 42 41 41 38 30
46 46 46 44 41 42 42 40 40 40 38 37 38 39 41 39 38 38 38 37 36 37 37 38 39 39 40 42 40 37 30 32 32 27 25 30 34 33 31 37 38 39 41
45 45 44 42 43 42 41 40 40 39 38 36 37 39 39 37 37 36 35 34 35 35 35 34 34 35 39 41 39 36 27 26 25 24 25 27 28 31 31 30 29 29 30
47 45 44 42 41 42 42 41 38 37 37 36 36 38 38 36 35 34 34 34 34 33 33 33 31 30 32 40 38 32 26 28 27 29 28 29 29 39 38 30 28 27 29
44 43 42 41 41 40 42 39 37 37 37 37 37 38 37 36 34 34 33 33 33 32 30 28 28 36 30 40 39 33 30 27 29 28 30 38 33 38 38 28 26 25 26
42 40 40 40 41 40 38 36 37 36 37 38 38 37 36 35 35 34 33 30 27 26 23 27 26 28 31 34 39 38 31 29 27 29 29 30 37 38 37 35 27 28 29
40 39 38 38 38 39 38 37 36 37 37 37 36 35 35 36 35 34 32 28 27 26 25 25 26 27 27 38 39 39 37 35 29 28 29 29 36 37 37 33 35 37 31
41 40 39 37 37 38 40 37 36 37 37 36 35 35 36 36 36 31 27 26 26 25 24 27 25 26 29 26 38 39 39 37 31 31 32 36 37 36 31 35 36 34 26
39 39 38 34 34 36 38 39 37 38 37 36 35 36 35 34 33 30 29 26 25 24 27 27 26 24 25 26 27 29 27 33 31 32 26 31 33 34 32 30 29 27 26
40 38 37 34 34 34 36 38 38 38 37 37 36 35 34 34 30 28 26 25 26 28 27 26 27 25 25 28 31 31 30 27 31 28 25 25 25 24 25 25 25 24 25
38 37 35 35 34 34 35 38 39 39 37 35 35 35 33 30 27 26 25 36 36 38 39 38 31 30 35 37 38 37 36 36 35 26 23 21 20 20 23 23 23 23 25
MSLP
1013.47 1013.51 1013.35 1013.37 1013.88 1013.98 1013.98 1014.09 1014.46 1014.74 1015.29 1015.79 1016.20 1016.50 1016.60 1016.57 1016.48 1016.54 1016.64 1016.89 1017.09 1017.36 1017.82 1018.15 1018.55 1018.90 1019.35 1019.53 1019.81 1020.15 1020.44 1020.72 1021.00 1021.35 1021.31 1021.15 1020.98 1021.05 1021.04 1021.07 1021.11 1021.09 1021.10
1013.48 1013.40 1013.28 1013.44 1013.54 1013.96 1014.18 1014.09 1014.21 1014.63 1015.03 1015.35 1015.64 1015.85 1016.01 1016.04 1015.98 1016.00 1016.28 1016.58 1016.75 1016.96 1017.36 1017.69 1017.99 1018.25 1018.82 1019.21 1019.42 1019.77 1020.21 1020.34 1020.55 1020.99 1021.49 1021.30 1020.91 1020.67 1020.40 1020.51 1020.66 1020.79 1021.05
1013.58 1013.68 1013.73 1013.95 1013.96 1014.05 1014.39 1014.47 1014.42 1014.40 1014.75 1015.09 1015.44 1015.81 1015.92 1016.02 1016.08 1016.07 1016.14 1016.20 1016.73 1016.84 1017.03 1017.29 1017.57 1017.95 1018.36 1018.68 1018.88 1019.27 1019.62 1019.95 1020.29 1020.42 1020.88 1021.33 1021.19 1021.13 1020.44 1020.59 1020.67 1020.85 1021.14
1013.63 1014.00 1013.99 1014.31 1014.55 1014.47 1014.54 1014.68 1014.86 1014.91 1014.89 1015.00 1015.23 1015.41 1015.63 1015.92 1015.76 1015.82 1015.88 1016.05 1016.24 1016.38 1016.60 1016.83 1017.14 1017.42 1017.67 1018.14 1018.28 1018.60 1018.95 1019.43 1019.75 1020.30 1020.29 1020.48 1020.78 1021.09 1020.89 1020.57 1020.41 1020.21 1020.25
1013.54 1013.95 1014.13 1014.28 1014.70 1014.74 1014.77 1014.80 1014.96 1015.17 1015.24 1015.32 1015.34 1015.45 1015.61 1015.61 1015.56 1015.75 1015.89 1015.95 1015.99 1016.06 1016.21 1016.38 1016.67 1017.04 1017.38 1017.71 1017.90 1018.17 1018.52 1018.81 1019.16 1019.49 1019.82 1019.93 1020.40 1020.59 1020.91 1020.42 1020.47 1020.78 1020.88
1013.59 1014.07 1014.31 1014.54 1014.83 1015.09 1015.35 1015.63 1015.74 1015.84 1015.68 1015.64 1015.73 1015.75 1015.75 1015.83 1016.01 1016.06 1016.06 1016.00 1015.99 1016.06 1016.00 1016.13 1016.28 1016.44 1016.92 1017.21 1017.43 1017.67 1018.04 1018.37 1018.66 1018.83 1019.17 1019.45 1019.87 1020.04 1020.21 1020.46 1020.32 1020.54 1020.83
1013.50 1014.14 1014.46 1014.89 1015.24 1015.46 1015.64 1015.91 1016.13 1016.39 1016.37 1016.24 1016.20 1016.20 1016.13 1016.10 1016.16 1016.22 1016.31 1016.34 1016.24 1016.08 1015.95 1015.99 1016.14 1016.32 1016.40 1016.72 1016.83 1017.38 1017.76 1018.14 1018.46 1018.54 1018.71 1018.89 1019.10 1019.26 1019.50 1019.75 1020.00 1020.55 1021.05
1013.36 1014.13 1014.77 1015.13 1015.50 1015.81 1015.96 1016.21 1016.46 1016.72 1016.81 1016.85 1016.89 1016.79 1016.61 1016.56 1016.57 1016.59 1016.59 1016.60 1016.53 1016.41 1016.13 1015.89 1015.77 1016.09 1016.13 1016.49 1016.70 1017.41 1017.82 1018.13 1018.36 1018.64 1018.73 1018.84 1019.18 1019.31 1019.32 1019.65 1020.02 1020.79 1021.16
1013.82 1014.21 1014.88 1015.38 1015.73 1016.02 1016.37 1016.68 1017.02 1017.23 1017.25 1017.26 1017.37 1017.48 1017.33 1017.26 1017.32 1017.27 1017.19 1017.16 1017.06 1016.91 1016.59 1016.31 1016.43 1016.46 1016.65 1016.94 1017.37 1017.55 1018.19 1018.46 1019.03 1019.38 1019.26 1019.46 1019.72 1019.71 1019.97 1019.98 1020.11 1020.45 1021.02
1014.16 1014.94 1015.27 1015.57 1016.02 1016.38 1016.75 1017.12 1017.41 1017.58 1017.80 1017.78 1017.82 1018.06 1018.16 1018.04 1017.92 1017.87 1017.98 1017.92 1017.73 1017.57 1017.35 1017.26 1017.30 1017.44 1017.65 1017.81 1018.01 1018.27 1018.58 1019.21 1019.63 1019.57 1019.75 1020.14 1020.32 1020.19 1020.42 1020.64 1020.57 1020.64 1021.04
1014.48 1015.01 1015.45 1015.98 1016.35 1016.71 1017.14 1017.50 1017.84 1018.02 1018.32 1018.28 1018.39 1018.57 1018.71 1018.79 1018.56 1018.58 1018.58 1018.50 1018.42 1018.33 1018.27 1018.29 1018.28 1018.33 1018.52 1018.65 1018.67 1018.88 1019.24 1019.63 1019.97 1020.23 1020.31 1020.57 1020.71 1020.92 1021.00 1020.80 1021.03 1021.15 1021.16
1014.56 1015.18 1015.54 1015.99 1016.69 1017.14 1017.55 1017.81 1018.10 1018.32 1018.55 1018.61 1018.83 1019.15 1019.05 1019.40 1019.31 1019.26 1019.18 1019.04 1019.02 1019.04 1019.10 1019.11 1019.10 1019.13 1019.19 1019.23 1019.23 1019.52 1019.77 1020.08 1020.33 1020.69 1020.81 1021.01 1021.20 1021.31 1021.45 1021.52 1021.75 1021.86 1021.65
1014.86 1015.38 1015.91 1016.38 1016.92 1017.32 1017.78 1018.03 1018.33 1018.49 1018.80 1018.92 1019.29 1019.58 1019.64 1019.91 1020.08 1020.12 1019.90 1019.72 1019.70 1019.77 1019.75 1019.76 1019.82 1019.87 1019.88 1019.94 1020.09 1020.11 1020.45 1020.57 1020.91 1021.07 1021.28 1021.59 1021.79 1022.06 1022.08 1022.20 1022.38 1022.43 1022.14
1014.73 1015.33 1015.96 1016.41 1016.93 1017.39 1017.65 1018.12 1018.47 1018.76 1019.10 1019.33 1019.67 1019.90 1020.33 1020.20 1020.37 1020.54 1020.47 1020.34 1020.22 1020.26 1020.39 1020.39 1020.48 1020.52 1020.64 1020.56 1020.78 1020.94 1021.15 1021.52 1021.53 1021.74 1022.03 1022.24 1022.23 1022.45 1022.69 1022.68 1022.83 1022.84 1022.68
1014.70 1015.04 1015.61 1016.22 1016.81 1017.34 1017.73 1018.06 1018.60 1019.06 1019.29 1019.57 1020.04 1020.42 1020.42 1020.34 1020.80 1020.93 1020.91 1020.93 1020.90 1020.87 1021.05 1021.11 1021.03 1021.13 1021.09 1021.25 1021.36 1021.52 1021.98 1022.00 1022.18 1022.63 1022.69 1022.61 1022.40 1022.55 1022.80 1022.94 1023.10 1023.07 1023.12
1014.25 1014.81 1015.38 1016.04 1016.67 1017.21 1017.76 1018.17 1018.61 1019.02 1019.41 1019.91 1020.21 1020.29 1020.43 1020.77 1021.08 1021.26 1021.42 1021.55 1021.43 1021.46 1021.52 1021.48 1021.39 1021.48 1021.40 1021.49 1021.68 1022.14 1022.28 1022.63 1023.15 1023.49 1023.40 1023.23 1023.50 1023.16 1022.84 1022.92 1023.01 1023.24 1023.42
1013.80 1014.43 1014.96 1015.62 1016.32 1016.97 1017.48 1018.05 1018.53 1019.08 1019.57 1019.96 1020.25 1020.36 1020.54 1020.88 1021.25 1021.50 1021.67 1021.80 1021.86 1021.88 1021.91 1021.94 1021.95 1021.86 1021.90 1021.90 1022.15 1022.59 1023.00 1023.57 1024.01 1023.99 1023.83 1023.81 1023.93 1024.02 1023.96 1023.60 1023.66 1023.61 1023.39
1013.39 1014.07 1014.67 1015.33 1016.06 1016.71 1017.41 1017.93 1018.61 1019.07 1019.44 1019.97 1020.14 1020.35 1020.64 1021.08 1021.44 1021.68 1021.95 1022.04 1022.16 1022.28 1022.49 1022.50 1022.46 1022.46 1022.38 1022.29 1022.72 1023.18 1023.83 1024.13 1024.12 1024.25 1024.23 1024.18 1024.24 1024.12 1024.16 1024.21 1024.29 1024.37 1024.38
1012.98 1013.55 1014.16 1014.97 1015.86 1016.63 1017.34 1018.02 1018.66 1019.01 1019.42 1019.91 1020.03 1020.33 1020.72 1021.21 1021.59 1021.82 1022.08 1022.33 1022.51 1022.75 1022.92 1023.03 1023.16 1023.05 1022.89 1022.95 1023.20 1023.82 1024.21 1024.25 1024.35 1024.48 1024.41 1024.45 1024.31 1023.95 1024.17 1024.52 1024.60 1024.70 1024.74
1013.09 1013.64 1014.35 1015.14 1016.03 1016.76 1017.29 1017.92 1018.45 1018.90 1019.37 1019.73 1020.02 1020.33 1020.69 1021.21 1021.60 1021.96 1022.15 1022.59 1022.85 1023.22 1023.48 1023.66 1023.59 1023.51 1023.37 1023.17 1023.36 1024.05 1024.16 1024.39 1024.59 1024.56 1024.52 1024.08 1024.33 1024.24 1024.27 1024.60 1024.77 1024.79 1024.85
1013.58 1014.20 1014.77 1015.34 1015.91 1016.63 1017.25 1017.92 1018.33 1018.76 1019.14 1019.54 1019.93 1020.34 1020.82 1021.24 1021.65 1021.95 1022.42 1022.98 1023.38 1023.85 1024.04 1024.15 1024.07 1023.96 1023.59 1023.38 1023.42 1023.81 1024.05 1024.31 1024.56 1024.66 1024.78 1024.77 1024.31 1024.27 1024.32 1024.47 1024.66 1024.59 1024.62
1014.13 1014.65 1015.21 1015.78 1016.25 1016.72 1017.25 1017.81 1018.25 1018.67 1019.07 1019.48 1019.93 1020.38 1020.79 1021.19 1021.73 1022.16 1022.78 1023.29 1023.79 1024.20 1024.48 1024.46 1024.39 1024.19 1024.10 1023.60 1023.53 1023.72 1023.99 1024.15 1024.41 1024.68 1024.73 1024.82 1024.51 1024.39 1024.38 1024.60 1024.44 1024.19 1024.62
1014.58 1015.09 1015.55 1016.13 1016.55 1016.89 1017.22 1017.64 1018.07 1018.61 1019.09 1019.54 1019.92 1020.37 1020.81 1021.31 1021.78 1022.41 1023.07 1023.63 1023.91 1024.21 1024.39 1024.37 1024.32 1024.36 1024.21 1024.35 1023.83 1023.78 1023.81 1023.95 1024.30 1024.56 1024.65 1024.33 1024.28 1024.45 1024.78 1024.41 1024.19 1024.47 1024.92
1014.70 1015.21 1015.77 1016.32 1016.76 1017.02 1017.26 1017.49 1018.06 1018.50 1018.96 1019.36 1019.83 1020.29 1020.82 1021.39 1022.02 1022.60 1023.00 1023.36 1023.61 1023.86 1023.96 1023.96 1024.08 1024.11 1024.40 1024.49 1024.43 1024.34 1024.58 1024.32 1024.47 1024.57 1025.01 1024.63 1024.41 1024.44 1024.57 1024.59 1024.90 1025.03 1025.13
1014.70 1015.16 1015.56 1016.10 1016.64 1017.01 1017.30 1017.57 1017.89 1018.27 1018.69 1019.18 1019.71 1020.27 1020.82 1021.46 1022.15 1022.50 1022.67 1022.98 1023.00 1022.98 1023.10 1023.27 1023.43 1023.88 1024.10 1023.90 1023.83 1023.96 1024.16 1024.24 1024.36 1024.60 1024.89 1024.87 1024.90 1024.91 1024.96 1025.01 1025.06 1025.12 1025.18
1014.49 1014.88 1015.30 1015.88 1016.39 1016.75 1017.09 1017.40 1017.68 1018.02 1018.38 1018.91 1019.45 1020.03 1020.67 1021.35 1021.94 1022.35 1022.63 1022.58 1022.57 1022.36 1022.31 1022.41 1022.85 1023.17 1023.09 1023.02 1023.14 1023.50 1023.77 1023.89 1024.01 1024.53 1024.99 1025.15 1025.19 1025.21 1025.26 1025.33 1025.29 1025.15 1025.06
Wind_Speed
6 6 7 7 5 5 7 9 8 7 5 3 3 2 4 3 4 4 7 7 8 9 9 6 6 5 7 8 8 4 6 4 2 1 2 3 5 6 5 4 5 6 6
7 4 1 6 8 5 5 5 6 7 5 3 3 3 3 3 2 3 5 6 6 5 6 6 7 7 5 5 6 5 3 3 5 3 1 3 3 3 6 4 5 5 3
8 5 5 4 3 5 4 4 3 4 5 6 4 2 2 1 1 2 3 5 6 7 7 7 5 5 5 6 6 6 7 6 3 4 3 1 5 2 2 2 2 3 2
6 4 6 6 5 3 3 4 3 2 1 2 4 6 5 5 4 3 3 3 5 5 5 6 6 6 5 6 6 4 6 5 7 2 5 3 3 4 4 1 2 4 6
9 8 7 7 5 5 4 4 5 5 3 1 2 4 4 2 1 1 3 4 4 6 7 7 6 5 4 4 5 5 5 5 5 5 2 4 3 2 4 7 3 2 3
8 7 5 6 6 5 6 6 6 5 6 4 3 2 5 4 3 2 3 3 3 3 6 6 6 5 5 5 4 4 5 5 4 4 4 5 4 3 5 6 6 4 2
9 8 8 7 6 6 6 5 6 6 6 7 6 5 2 2 3 2 2 2 2 2 4 5 5 4 4 4 4 4 4 4 3 4 4 4 6 3 3 3 3 3 1
10 9 7 7 7 6 6 6 6 6 6 6 5 5 5 3 3 2 1 1 1 2 3 0 3 4 4 4 3 3 3 3 3 4 3 1 3 1 1 2 2 1 2
8 10 8 7 7 7 6 6 6 5 5 5 4 5 5 6 4 5 5 3 4 3 5 6 6 7 7 5 4 5 4 6 4 3 4 3 2 3 3 2 1 2 2
8 7 7 7 5 6 6 6 6 5 5 6 5 5 5 5 5 5 6 5 5 5 6 6 6 6 6 5 5 4 6 6 3 3 5 3 2 3 3 2 2 2 1
8 8 6 6 7 6 6 6 5 6 6 5 5 6 5 6 5 5 5 5 5 5 6 5 6 6 5 5 5 6 5 6 5 4 4 4 4 3 2 3 2 2 1
8 7 7 7 6 6 5 5 5 6 5 5 6 5 6 5 6 6 6 5 6 6 5 5 6 6 5 5 6 6 6 5 5 4 5 4 3 4 4 3 4 3 2
8 7 7 7 6 6 6 5 5 5 5 5 5 5 6 5 5 5 5 5 5 5 6 6 6 6 6 6 6 6 7 8 7 6 6 5 5 5 4 4 3 1 2
9 7 6 6 6 6 6 6 5 5 5 5 5 6 5 5 5 5 5 6 5 6 6 6 6 6 6 7 7 8 8 7 7 7 6 6 6 5 4 4 4 3 4
7 8 7 7 6 6 5 5 5 5 5 5 5 5 5 6 5 5 5 6 6 6 5 5 6 5 6 5 8 8 8 9 9 7 6 4 7 9 7 3 4 4 3
9 8 7 8 8 7 6 6 6 6 6 5 5 5 5 6 5 5 5 5 5 5 5 5 7 7 7 13 13 10 9 8 7 5 5 7 9 8 9 9 9 5 3
9 10 11 10 8 8 8 7 7 6 6 6 5 5 6 6 5 5 6 5 5 5 6 5 6 7 9 14 15 15 7 7 6 4 3 4 4 6 5 7 8 8 8
8 8 7 6 7 7 6 7 6 6 7 6 5 5 6 6 6 6 5 4 4 5 5 6 6 5 8 13 13 14 6 5 5 4 4 5 4 3 5 5 4 4 4
6 6 6 6 7 9 9 8 7 6 7 6 5 5 6 7 6 6 5 4 5 5 4 4 5 6 6 12 12 9 5 5 5 4 4 4 4 5 6 4 3 3 3
5 7 7 6 8 7 9 9 7 7 7 6 5 6 7 7 7 6 5 2 3 4 4 4 4 7 3 8 8 6 3 4 3 3 4 5 3 5 4 3 2 1 2
5 7 7 8 7 8 8 7 7 7 6 7 7 7 7 7 7 6 4 4 4 4 3 5 3 4 4 4 7 6 3 3 2 2 1 2 5 6 5 2 1 2 1
5 5 6 6 5 7 7 7 6 6 7 7 7 7 7 6 6 7 5 4 5 5 4 4 2 2 3 4 4 5 5 4 2 1 0 2 5 4 4 1 4 2 4
5 4 6 6 5 6 6 7 6 8 8 8 8 7 7 6 6 7 5 4 5 4 4 3 2 2 0 2 2 1 1 2 2 1 3 6 5 3 3 3 3 4 2
5 5 6 6 6 5 5 5 8 9 9 9 9 8 7 7 5 4 4 4 4 4 4 4 4 2 2 2 2 1 2 2 1 2 3 3 2 2 2 1 2 1 1
5 6 7 6 6 5 5 6 8 10 9 9 8 8 6 7 6 4 5 4 4 5 4 4 4 4 4 4 6 4 2 2 3 2 1 1 0 1 1 1 1 0 0
6 6 6 6 6 7 7 8 9 9 9 8 7 7 6 5 5 4 2 8 9 11 10 7 7 4 5 6 8 6 4 4 3 1 1 1 1 2 2 2 2 1 2
Wind_Direction
240 245 224 228 204 240 214 187 179 181 156 151 159 193 202 201 215 194 201 200 200 198 197 204 196 190 204 210 203 187 205 234 191 122 308 286 244 242 238 233 230 228 218
229 248 180 198 193 152 236 261 205 158 168 160 162 173 171 216 186 193 200 217 213 187 193 200 205 196 199 201 196 182 193 224 179 178 100 293 302 267 237 220 233 240 234
205 191 134 143 135 128 135 173 218 231 205 178 138 127 94 72 156 226 215 226 207 205 204 207 200 196 189 216 205 194 197 234 216 194 186 296 235 342 344 356 242 251 233
177 192 153 133 140 121 94 105 108 102 83 185 187 187 202 204 213 214 231 230 215 214 207 209 203 208 192 209 215 214 210 192 240 168 224 197 169 233 309 284 229 207 208
189 186 172 142 122 109 89 71 72 49 13 314 216 219 212 218 132 180 219 218 216 213 212 211 205 204 188 217 211 203 195 206 228 210 220 222 191 193 232 280 263 349 12
174 166 145 120 98 79 92 95 89 57 40 40 12 236 224 213 206 225 237 253 235 225 224 215 209 208 208 209 214 205 195 203 221 197 199 206 192 205 216 243 258 210 215
160 159 150 134 117 100 93 92 85 72 59 53 39 20 329 214 226 236 241 259 275 257 249 210 206 210 180 197 180 196 190 188 205 210 207 208 224 209 204 234 237 234 121
152 153 154 140 129 114 100 86 74 71 59 61 53 40 38 48 47 23 15 19 26 329 331 91 147 170 149 164 151 117 102 82 40 21 -0 285 21 353 259 214 181 278 250
156 152 144 137 128 111 99 100 91 74 60 63 63 47 49 58 57 45 46 41 26 26 35 47 63 56 59 59 74 91 85 71 59 45 47 67 43 54 32 19 29 202 270
128 136 134 128 113 109 105 95 92 88 76 70 64 60 50 53 60 56 48 39 27 31 46 49 54 58 60 64 82 81 78 85 61 67 71 56 58 62 62 69 74 74 155
145 142 132 122 119 107 104 100 94 99 82 81 73 66 50 41 51 57 47 42 41 38 50 55 59 58 62 76 83 82 91 100 85 67 87 80 71 66 36 61 60 72 97
148 144 141 130 134 123 116 113 103 101 94 88 85 74 66 51 50 46 41 42 53 45 54 59 66 64 59 52 78 83 79 91 86 81 85 78 82 77 60 58 49 44 19
147 144 140 147 147 139 137 126 121 111 103 91 87 73 70 68 59 50 46 50 58 53 53 58 61 60 59 66 62 74 74 72 72 65 68 61 63 59 62 70 71 21 51
162 154 152 154 153 153 145 137 125 120 115 102 95 84 77 78 68 55 50 52 54 61 57 57 65 63 64 69 70 77 76 77 70 66 68 71 79 84 80 68 63 55 64
176 175 167 164 161 155 146 136 138 138 126 109 107 111 99 85 78 67 63 57 60 67 65 73 71 77 75 82 91 85 93 90 77 56 58 80 97 91 91 92 62 60 64
192 188 175 167 171 171 166 155 149 143 132 126 128 129 120 114 105 98 89 77 67 72 78 76 89 90 89 95 101 110 96 75 74 72 51 51 46 39 65 66 73 74 87
192 187 186 183 175 174 163 162 153 143 140 139 142 136 129 120 114 114 109 93 83 82 69 68 85 82 92 97 96 94 86 100 101 90 67 62 43 52 47 35 45 38 45
188 188 175 161 158 152 150 136 145 150 139 146 144 140 134 125 122 116 109 89 80 79 84 73 61 67 95 95 97 93 78 86 79 84 86 77 40 24 54 42 46 33 28
189 183 160 148 143 152 149 147 148 144 144 157 151 145 144 140 131 119 118 102 98 82 72 69 76 80 78 97 99 98 94 89 79 76 77 84 38 32 51 53 32 22 11
152 150 138 118 135 146 148 146 152 154 162 162 152 142 138 141 139 138 119 75 79 89 84 78 72 98 98 107 108 107 110 94 94 61 44 43 71 23 7 81 51 14 302
125 115 126 147 153 145 143 150 156 171 157 143 138 137 140 137 134 119 112 116 104 104 88 94 68 73 87 92 104 107 94 115 100 69 33 3 347 342 344 104 155 237 239
118 130 132 142 143 146 149 158 167 145 140 140 142 142 139 140 139 132 124 131 136 134 137 129 105 53 25 79 86 105 106 111 115 126 118 299 311 332 325 71 261 313 79
144 139 144 145 156 159 165 164 158 150 149 150 149 149 144 142 149 148 155 147 154 155 169 174 162 195 96 1 31 54 121 98 115 153 269 313 301 332 351 310 305 83 72
167 153 152 166 175 173 157 148 156 158 159 159 159 156 154 152 147 158 165 158 166 177 190 191 196 202 220 236 217 117 39 6 27 311 330 298 291 225 258 310 27 57 166
169 171 173 175 186 170 168 155 165 165 168 166 164 163 163 169 175 188 178 185 213 188 186 208 182 182 222 223 199 179 194 202 241 144 5 337 350 304 290 264 244 265 291
171 174 175 175 183 175 174 186 177 177 171 172 171 173 166 166 174 172 197 224 222 215 219 210 184 211 215 195 194 213 235 248 261 109 234 268 244 231 243 245 258 248 256